When you browse on this site, cookies collect data to enhance your experience and personalize the content and advertising you see.
Visit our Privacy Policy to learn more. By continuing to use the site, you agree to this use of cookies and data.
  • In Hungary
  • List of Countries
  • For 7 days
  • Water Temperature
  • Satellite Maps
  • Weather Map
  • News
  • Weather Widgets
  • user-avatar
    Login

    Hourly Weather Lewiston

    Today, 17 February, Sunday

    Time Temperature Precipitation Wind Pressure Humidity
    00:00 -2°C° 0.1 mm 0 mps 726 mmHg 94%
    01:00 -2°C° 0.1 mm 0 mps 726 mmHg 93%
    02:00 -3°C° 0.1 mm 0 mps 727 mmHg 93%
    03:00 -3°C° 0.1 mm 0 mps 727 mmHg 93%
    04:00 -2°C° 0 mm 0 mps 727 mmHg 93%
    05:00 -3°C° 0.1 mm 0 mps 727 mmHg 92%
    06:00 -3°C° 0.1 mm 0 mps 728 mmHg 92%
    07:00 -3°C° 0.1 mm 0 mps 728 mmHg 92%
    08:00 -2°C° 0.1 mm 0 mps 728 mmHg 91%
    09:00 0°C° 0.1 mm 1 mps 729 mmHg 90%
    10:00 +1°C° 0.1 mm 1 mps 729 mmHg 89%
    11:00 +2°C° 0.1 mm 1 mps 730 mmHg 91%
    12:00 +2°C° 0.1 mm 1 mps 730 mmHg 93%
    13:00 +1°C° 0.1 mm 2 mps 730 mmHg 94%
    14:00 +1°C° 0.1 mm 2 mps 730 mmHg 94%
    15:00 +1°C° 0.1 mm 2 mps 731 mmHg 94%
    16:00 -1°C° 0.1 mm 2 mps 731 mmHg 94%
    17:00 -1°C° 0.1 mm 2 mps 732 mmHg 94%
    18:00 -2°C° 0.1 mm 2 mps 732 mmHg 95%
    19:00 -1°C° 0.1 mm 1 mps 733 mmHg 95%
    20:00 -1°C° 0.1 mm 1 mps 733 mmHg 95%
    21:00 -1°C° 0.1 mm 1 mps 734 mmHg 95%
    22:00 -1°C° 0.1 mm 1 mps 734 mmHg 94%
    23:00 -2°C° 0.1 mm 1 mps 735 mmHg 94%

    Tomorrow, 18 February, Monday

    Time Temperature Precipitation Wind Pressure Humidity
    00:00 -2°C° 0.1 mm 1 mps 735 mmHg 93%
    01:00 -3°C° 0.1 mm 1 mps 736 mmHg 93%
    02:00 -3°C° 0 mm 1 mps 736 mmHg 93%
    03:00 -4°C° 0 mm 1 mps 736 mmHg 92%
    04:00 -4°C° 0 mm 1 mps 736 mmHg 92%
    05:00 -6°C° 0 mm 1 mps 737 mmHg 91%
    06:00 -7°C° 0 mm 1 mps 737 mmHg 91%
    07:00 -7°C° 0 mm 1 mps 737 mmHg 91%
    08:00 -6°C° 0 mm 0 mps 738 mmHg 88%
    09:00 -4°C° 0 mm 0 mps 738 mmHg 85%
    10:00 -3°C° 0 mm 0 mps 738 mmHg 83%
    11:00 -1°C° 0 mm 1 mps 737 mmHg 80%
    12:00 -1°C° 0 mm 1 mps 737 mmHg 77%
    13:00 -2°C° 0 mm 2 mps 737 mmHg 74%
    14:00 -1°C° 0 mm 1 mps 737 mmHg 77%
    15:00 -1°C° 0 mm 1 mps 736 mmHg 81%
    16:00 -1°C° 0 mm 1 mps 736 mmHg 85%
    17:00 -3°C° 0 mm 1 mps 737 mmHg 85%
    18:00 -6°C° 0 mm 1 mps 737 mmHg 86%
    19:00 -7°C° 0 mm 0 mps 737 mmHg 86%
    20:00 -8°C° 0 mm 1 mps 737 mmHg 85%
    21:00 -8°C° 0 mm 1 mps 738 mmHg 84%
    22:00 -8°C° 0 mm 1 mps 738 mmHg 84%
    23:00 -8°C° 0 mm 1 mps 738 mmHg 83%

    Day after tomorrow, 19 February, Tuesday

    Time Temperature Precipitation Wind Pressure Humidity
    00:00 -8°C° 0 mm 1 mps 738 mmHg 83%
    01:00 -8°C° 0 mm 1 mps 738 mmHg 83%
    02:00 -8°C° 0 mm 1 mps 737 mmHg 84%
    03:00 -8°C° 0 mm 1 mps 737 mmHg 84%
    04:00 -8°C° 0 mm 1 mps 737 mmHg 85%
    05:00 -8°C° 0 mm 2 mps 737 mmHg 86%
    06:00 -8°C° 0 mm 2 mps 736 mmHg 86%
    07:00 -8°C° 0 mm 2 mps 736 mmHg 87%
    08:00 -6°C° 0 mm 2 mps 735 mmHg 86%
    09:00 -5°C° 0 mm 2 mps 735 mmHg 84%
    10:00 -3°C° 0 mm 2 mps 734 mmHg 83%
    11:00 -2°C° 0 mm 2 mps 733 mmHg 83%
    12:00 +1°C° 0 mm 1 mps 732 mmHg 83%
    13:00 +2°C° 0 mm 1 mps 731 mmHg 82%
    14:00 +1°C° 0.2 mm 1 mps 731 mmHg 86%
    15:00 +1°C° 0.2 mm 1 mps 730 mmHg 89%
    16:00 +1°C° 0.2 mm 1 mps 729 mmHg 92%
    17:00 +1°C° 0.4 mm 1 mps 729 mmHg 93%
    18:00 0°C° 0.4 mm 1 mps 728 mmHg 94%
    19:00 -1°C° 0.4 mm 1 mps 728 mmHg 95%
    20:00 0°C° 0.4 mm 1 mps 727 mmHg 94%
    21:00 0°C° 0.4 mm 1 mps 727 mmHg 94%
    22:00 0°C° 0.4 mm 1 mps 727 mmHg 93%
    23:00 0°C° 0.4 mm 1 mps 726 mmHg 93%

    20 February, Wednesday

    Time Temperature Precipitation Wind Pressure Humidity
    00:00 -1°C° 0.4 mm 0 mps 726 mmHg 93%
    01:00 -1°C° 0.4 mm 0 mps 726 mmHg 93%
    02:00 -1°C° 0.2 mm 0 mps 725 mmHg 93%
    03:00 -1°C° 0.2 mm 0 mps 725 mmHg 93%
    04:00 -2°C° 0.2 mm 0 mps 725 mmHg 92%
    05:00 -2°C° 0.1 mm 0 mps 725 mmHg 93%
    06:00 -2°C° 0.1 mm 0 mps 725 mmHg 93%
    07:00 -1°C° 0.1 mm 1 mps 725 mmHg 94%
    08:00 0°C° 0.1 mm 1 mps 725 mmHg 93%
    09:00 +1°C° 0.1 mm 1 mps 725 mmHg 91%
    10:00 +1°C° 0.1 mm 1 mps 725 mmHg 90%
    11:00 +1°C° 0.1 mm 2 mps 725 mmHg 90%
    12:00 +1°C° 0.1 mm 2 mps 725 mmHg 90%
    13:00 +1°C° 0.1 mm 2 mps 725 mmHg 91%
    14:00 -1°C° 0.1 mm 3 mps 725 mmHg 90%
    15:00 -1°C° 0.1 mm 3 mps 725 mmHg 90%
    16:00 -1°C° 0.1 mm 3 mps 725 mmHg 90%
    17:00 -3°C° 0 mm 2 mps 726 mmHg 91%
    18:00 -4°C° 0 mm 2 mps 726 mmHg 92%
    19:00 -3°C° 0 mm 1 mps 727 mmHg 93%
    20:00 -3°C° 0.1 mm 1 mps 727 mmHg 92%
    21:00 -4°C° 0.1 mm 1 mps 728 mmHg 91%
    22:00 -4°C° 0.1 mm 1 mps 728 mmHg 90%
    23:00 -4°C° 0.1 mm 1 mps 729 mmHg 90%

    21 February, Thursday

    Time Temperature Precipitation Wind Pressure Humidity
    00:00 -3°C° 0.1 mm 1 mps 729 mmHg 91%
    01:00 -3°C° 0.1 mm 1 mps 729 mmHg 91%
    02:00 -4°C° 0.1 mm 0 mps 730 mmHg 91%
    03:00 -4°C° 0.1 mm 0 mps 730 mmHg 91%
    04:00 -4°C° 0.1 mm 0 mps 730 mmHg 91%
    05:00 -4°C° 0.1 mm 0 mps 731 mmHg 92%
    06:00 -5°C° 0.1 mm 0 mps 731 mmHg 92%
    07:00 -5°C° 0.1 mm 0 mps 731 mmHg 92%
    08:00 -4°C° 0 mm 0 mps 731 mmHg 90%
    09:00 -2°C° 0 mm 0 mps 731 mmHg 88%
    10:00 -1°C° 0 mm 0 mps 731 mmHg 86%
    11:00 0°C° 0 mm 1 mps 731 mmHg 85%
    12:00 +1°C° 0 mm 1 mps 731 mmHg 85%
    13:00 +1°C° 0 mm 1 mps 730 mmHg 85%
    14:00 +1°C° 0 mm 1 mps 730 mmHg 86%
    15:00 +1°C° 0 mm 1 mps 730 mmHg 86%
    16:00 +1°C° 0 mm 1 mps 730 mmHg 87%
    17:00 -1°C° 0 mm 1 mps 731 mmHg 89%
    18:00 -2°C° 0 mm 1 mps 731 mmHg 90%
    19:00 -4°C° 0 mm 0 mps 732 mmHg 92%
    20:00 -5°C° 0 mm 0 mps 732 mmHg 91%
    21:00 -5°C° 0 mm 0 mps 732 mmHg 90%
    22:00 -6°C° 0 mm 1 mps 733 mmHg 89%
    23:00 -6°C° 0 mm 1 mps 733 mmHg 89%

    22 February, Friday

    Time Temperature Precipitation Wind Pressure Humidity
    00:00 -6°C° 0 mm 1 mps 733 mmHg 88%
    01:00 -6°C° 0 mm 1 mps 733 mmHg 88%
    02:00 -6°C° 0 mm 1 mps 734 mmHg 87%
    03:00 -7°C° 0 mm 1 mps 734 mmHg 87%
    04:00 -8°C° 0 mm 2 mps 734 mmHg 87%
    05:00 -8°C° 0 mm 2 mps 734 mmHg 86%
    06:00 -8°C° 0 mm 2 mps 734 mmHg 86%
    07:00 -8°C° 0 mm 2 mps 734 mmHg 86%
    08:00 -6°C° 0 mm 2 mps 734 mmHg 84%
    09:00 -5°C° 0 mm 2 mps 733 mmHg 82%
    10:00 -3°C° 0 mm 2 mps 733 mmHg 80%
    11:00 -2°C° 0 mm 2 mps 732 mmHg 79%
    12:00 +1°C° 0 mm 2 mps 732 mmHg 78%
    13:00 +3°C° 0 mm 1 mps 731 mmHg 77%
    14:00 +3°C° 0 mm 1 mps 731 mmHg 79%
    15:00 +3°C° 0 mm 1 mps 731 mmHg 81%
    16:00 +3°C° 0 mm 1 mps 730 mmHg 83%
    17:00 +2°C° 0.2 mm 1 mps 730 mmHg 85%
    18:00 +2°C° 0.2 mm 1 mps 731 mmHg 87%
    19:00 +1°C° 0.2 mm 1 mps 731 mmHg 89%
    20:00 +1°C° 0.4 mm 1 mps 730 mmHg 90%
    21:00 +1°C° 0.4 mm 1 mps 730 mmHg 91%
    22:00 -1°C° 0.4 mm 2 mps 730 mmHg 92%
    23:00 -1°C° 0.4 mm 2 mps 730 mmHg 92%
    Show more